This demonstration page uses our WeatherBlox Daily Observations layout. Learn more.

Left ArrowRight Arrow

Hourly Observations for August 15, 2020

Temp ( °F °C ) Dew Point ( °F °C ) Humidity (%) Winds ( mph kmh ) Pressure ( in mb ) Visibility ( mi km ) Precip ( " mm )
12:15 am 00:15 Clear 65 18.5 62 16.5 88 88 NNE 5 7 30.01 1016 10 16.0934 0 0
12:35 am 00:35 Clear 66 18.8 62 16.5 87 87 Calm 30.03 1017 10 16.0934 0 0
12:55 am 00:55 Clear 65 18.1 61 15.9 87 87 Calm 30.04 1017 10 16.0934 0 0
1:15 am 01:15 Partly Cloudy 65 18.3 62 16.5 89 89 SSE 5 7 30.05 1018 10 16.0934 0 0
1:35 am 01:35 Partly Cloudy 64 17.8 62 16.5 92 92 Calm 30.06 1018 10 16.0934 0 0
1:55 am 01:55 Partly Cloudy 64 17.5 61 16.1 92 92 Calm 30.06 1018 10 16.0934 0 0
2:15 am 02:15 Partly Cloudy 64 17.6 61 16.3 92 92 Calm 30.06 1018 10 16.0934 0 0
2:35 am 02:35 Partly Cloudy 64 17.9 62 16.5 92 92 Calm 30.05 1018 10 16.0934 0 0
2:55 am 02:55 Clear 64 17.6 61 16.2 92 92 N 7 11 30.05 1018 10 16.0934 0 0
3:15 am 03:15 Clear 64 17.9 61 16 89 89 N 6 9 30.05 1018 10 16.0934 0 0
3:35 am 03:35 Clear 64 17.9 61 16 89 89 N 6 9 30.05 1018 10 16.0934 0 0
3:55 am 03:55 Clear 63 17.1 60 15.7 92 92 Calm 30.04 1017 10 16.0934 0 0
4:15 am 04:15 Clear 62 16.6 60 15.5 93 93 N 5 7 30.04 1017 10 16.0934 0 0
4:35 am 04:35 Clear 62 16.7 60 15.5 93 93 Calm 30.03 1017 10 16.0934 0 0
4:55 am 04:55 Clear 62 16.4 59 15.1 92 92 NNE 5 7 30.04 1017 10 16.0934 0 0
5:15 am 05:15 Clear 60 15.8 58 14.7 93 93 NE 3 6 30.04 1017 10 16.0934 0 0
5:35 am 05:35 Clear 61 16.1 59 15 93 93 Calm 30.05 1018 10 16.0934 0 0
5:55 am 05:55 Clear 62 16.5 59 14.9 90 90 ENE 5 7 30.05 1017 7 11.26538 0 0
6:15 am 06:15 Clear 61 16 58 14.5 91 91 ESE 3 6 30.05 1018 7 11.26538 0 0
6:35 am 06:35 Clear 60 15.4 58 14.3 93 93 E 3 6 30.06 1018 10 16.0934 0 0
6:55 am 06:55 Sunny 60 15.6 58 14.5 93 93 Calm 30.08 1019 10 16.0934 0 0
7:15 am 07:15 Sunny 59 15.1 57 14 93 93 ENE 3 6 30.1 1019 10 16.0934 0 0
7:35 am 07:35 Sunny 60 15.7 58 14.7 94 94 Calm 30.1 1019 10 16.0934 0 0
7:55 am 07:55 Sunny 62 16.7 59 15.2 91 91 Calm 30.09 1019 10 16.0934 0 0
8:15 am 08:15 Sunny 64 17.8 59 15.2 85 85 Calm 30.1 1019 10 16.0934 0 0
8:35 am 08:35 Sunny 65 18.5 60 15.8 84 84 Calm 30.1 1019 10 16.0934 0 0
8:55 am 08:55 Sunny 66 19.1 61 16 82 82 ESE 6 9 30.08 1019 10 16.0934 0 0
9:15 am 09:15 Sunny 68 20 61 15.9 77 77 ESE 10 17 30.08 1019 10 16.0934 0 0
9:35 am 09:35 Sunny 69 20.5 60 15.5 73 73 ESE 8 13 30.09 1019 10 16.0934 0 0
9:55 am 09:55 Sunny 70 21.3 60 15.4 69 69 SE 8 13 30.08 1018 10 16.0934 0 0
10:15 am 10:15 Sunny 72 22.2 58 14.7 63 63 ESE 7 11 30.08 1019 10 16.0934 0 0
10:35 am 10:35 Sunny 73 22.6 58 14.3 60 60 ESE 8 13 30.08 1018 10 16.0934 0 0
10:55 am 10:55 Sunny 74 23.6 56 13.3 53 53 E 10 17 30.07 1018 10 16.0934 0 0
11:15 am 11:15 Sunny 76 24.2 55 12.7 49 49 SE 9 15 30.06 1018 10 16.0934 0 0
11:35 am 11:35 Sunny 77 24.9 51 10.7 41 41 ESE 12 19 30.06 1018 10 16.0934 0 0
11:55 am 11:55 Sunny 78 25.4 52 11 41 41 ESE 10 17 30.05 1018 10 16.0934 0 0
12:15 pm 12:15 Sunny 79 26.1 52 10.9 39 39 ESE 10 17 30.06 1018 10 16.0934 0 0
12:35 pm 12:35 Sunny 80 26.6 50 10 35 35 ESE 10 17 30.04 1017 10 16.0934 0 0
12:55 pm 12:55 Sunny 80 26.7 49 9.5 34 34 SE 10 17 30.03 1017 10 16.0934 0 0
1:15 pm 13:15 Sunny 81 27.4 50 10.2 34 34 SE 13 20 30.03 1017 10 16.0934 0 0
1:35 pm 13:35 Sunny 82 27.9 49 9.6 32 32 SSE 10 17 30.01 1016 10 16.0934 0 0
1:55 pm 13:55 Sunny 82 28 48 8.9 30 30 SE 13 20 30 1016 10 16.0934 0 0
2:15 pm 14:15 Sunny 82 28 47 8.2 29 29 SE 12 19 30 1016 10 16.0934 0 0
2:35 pm 14:35 Sunny 83 28.2 47 8.5 29 29 ESE 8 13 29.99 1016 10 16.0934 0 0
2:55 pm 14:55 Sunny 83 28.5 50 9.9 31 31 ESE 9 15 29.99 1016 10 16.0934 0 0
3:15 pm 15:15 Sunny 83 28.4 50 10.1 32 32 ESE 7 11 29.99 1016 10 16.0934 0 0
3:35 pm 15:35 Mostly Cloudy 83 28.6 51 10.5 32 32 SE 9 15 29.99 1015 10 16.0934 0 0
3:55 pm 15:55 Mostly Cloudy 84 29 50 9.9 30 30 SE 9 15 29.97 1015 10 16.0934 0 0
4:15 pm 16:15 Partly Cloudy 84 29 49 9.4 29 29 SE 10 17 29.96 1015 10 16.0934 0 0
4:35 pm 16:35 Sunny 84 29.1 52 11 33 33 ESE 10 17 29.96 1015 10 16.0934 0 0
4:55 pm 16:55 Sunny 84 29.1 52 10.9 32 32 SE 9 15 29.95 1014 10 16.0934 0 0
5:15 pm 17:15 Sunny 84 28.9 50 10.2 31 31 SE 10 17 29.95 1014 10 16.0934 0 0
5:35 pm 17:35 Sunny 84 28.7 51 10.5 32 32 SE 10 17 29.95 1014 10 16.0934 0 0
5:55 pm 17:55 Sunny 83 28.6 51 10.8 33 33 ESE 9 15 29.94 1014 10 16.0934 0 0
6:15 pm 18:15 Sunny 83 28.2 51 10.5 33 33 ESE 8 13 29.95 1014 10 16.0934 0 0
6:35 pm 18:35 Partly Cloudy 82 27.7 54 12.3 39 39 ESE 7 11 29.95 1014 10 16.0934 0 0
6:55 pm 18:55 Mostly Cloudy 81 27.2 56 13.3 42 42 E 7 11 29.96 1015 10 16.0934 0 0
7:15 pm 19:15 Cloudy 80 26.5 58 14.4 47 47 E 6 9 29.95 1014 10 16.0934 0 0
7:35 pm 19:35 Cloudy 78 25.7 60 15.5 53 53 SE 6 9 29.96 1015 10 16.0934 0 0
7:55 pm 19:55 Cloudy 76 24.7 61 16 59 59 ESE 7 11 29.96 1015 10 16.0934 0 0
8:15 pm 20:15 Mostly Cloudy 75 24.1 61 16 61 61 SE 7 11 29.96 1015 10 16.0934 0 0
8:35 pm 20:35 Partly Cloudy 73 22.7 61 15.9 66 66 ESE 7 11 29.97 1015 10 16.0934 0 0
8:55 pm 20:55 Partly Cloudy 70 21.3 62 16.5 74 74 E 6 9 30.02 1016 10 16.0934 0 0
9:15 pm 21:15 Partly Cloudy 71 21.5 61 16 71 71 E 7 11 30.02 1017 10 16.0934 0 0
9:35 pm 21:35 Clear 70 21.3 60 15.5 70 70 SE 9 15 30.03 1017 10 16.0934 0 0
9:55 pm 21:55 Clear 69 20.8 60 15.5 72 72 SE 8 13 30.02 1017 10 16.0934 0 0
10:15 pm 22:15 Clear 69 20.6 60 15.3 72 72 SE 7 11 30.01 1016 10 16.0934 0 0
10:35 pm 22:35 Clear 68 20.2 59 15 72 72 SE 8 13 30.03 1017 10 16.0934 0 0
10:55 pm 22:55 Clear 68 19.9 59 15 74 74 SE 7 11 30.03 1017 10 16.0934 0 0
11:15 pm 23:15 Clear 68 19.9 59 15 74 74 SE 6 9 30.04 1017 10 16.0934 0 0
11:35 pm 23:35 Clear 67 19.5 59 14.8 74 74 SE 5 7 30.05 1018 10 16.0934 0 0
11:55 pm 23:55 Clear 67 19.3 59 14.9 76 76 SSE 5 7 30.05 1018 10 16.0934 0 0

Powered by AerisWeather